Regional Weather Roundup
Issued by NWS

Home | Current Version | Previous Version | Text Only | Print | Product List | Glossary On
Versions: 1 2 3 4 5 6 7 8 9 10 11 12 13 14 15 16 17 18 19 20 21 22 23 24 25 26 27 28 29 30 31 32 33 34 35 36 37 38 39 40 41 42 43 44 45 46 47 48 49 50
000
ASUS44 KMEG 241810
RWRTN
TENNESSEE HOURLY STATE WEATHER ROUNDUP
NATIONAL WEATHER SERVICE MEMPHIS TN
100 PM CDT SUN JUL 24 2016

TNZ002-004-019-021-049-052-054-088>092-241900-
WEST TENNESSEE

CITY           SKY/WX    TMP DP  RH WIND       PRES   REMARKS
MEMPHIS INTL   PTSUNNY   90  75  61 VRB6      30.00S HX 100
NWS MEMPHIS      N/A     87 N/A N/A MISG        N/A
JACKSON        MOSUNNY   90  75  61 SW6       30.00F HX 100
DYERSBURG      MOSUNNY  N/A N/A N/A MISG        N/A
UNION CITY     MOSUNNY   91  77  62 SW9       29.99S HX 105
PARIS          SUNNY     90  73  58 S7        30.02F HX  98
LEXINGTON      MOSUNNY   91  73  55 VRB5      30.01F HX 100
$$

TNZ008-025-027-028-033-062-065-066-241900-
NORTH MIDDLE TENNESSEE

CITY           SKY/WX    TMP DP  RH WIND       PRES   REMARKS
NASHVILLE      PTSUNNY   91  72  53 W7        30.03F HX  98
CLARKSVILLE    MOSUNNY   89  74  60 S7        30.02F HX  98
SMYRNA         PTSUNNY   92  72  51 W6        30.03F HX  99
COOKEVILLE     MOSUNNY   91  77  62 SW5       30.06F HX 105
CROSSVILLE     PTSUNNY   85  69  58 W8        30.12F
$$

TNZ061-075-076-078-094-096-097-241900-
SOUTH MIDDLE TENNESSEE

CITY           SKY/WX    TMP DP  RH WIND       PRES   REMARKS
FAYETTEVILLE   MOSUNNY   88  73  62 VRB3      30.06S HX  96
TULLAHOMA      MOSUNNY   90  72  55 SW7       30.08S HX  96
WINCHESTER     CLOUDY    79  75  89 S3        30.08S
MCMINNVILLE    MOSUNNY   90  75  62 CALM      30.07S HX 100
COLUMBIA       MOSUNNY   93  73  52 SW7       30.01F HX 102
SHELBYVILLE    MOSUNNY   93  77  59 S5        30.05F HX 107
$$

TNZ017-018-042-046-047-241900-
NORTHEAST TENNESSEE

CITY           SKY/WX    TMP DP  RH WIND       PRES   REMARKS
TRI CITIES     PTSUNNY   92  67  43 SW6       30.08F HX  95
ELIZABETHTON   SUNNY     91  70  49 W7G13     30.08S HX  97
$$

TNZ012-013-036-069-073-074-241900-
CENTRAL EAST TENNESSEE

CITY           SKY/WX    TMP DP  RH WIND       PRES   REMARKS
KNOXVILLE      SUNNY     90  71  53 NW6       30.05F HX  96
OAK RIDGE      SUNNY     89  71  55 S6        30.08F HX  95
GATLINBURG       N/A     91  70  49 VRB3      30.05F HX  97
MORRISTOWN     MOSUNNY   90  70  51 CALM      30.07F HX  95
$$

TNZ083-085-099-241900-
SOUTHEAST TENNESSEE

CITY           SKY/WX    TMP DP  RH WIND       PRES   REMARKS
CHATTANOOGA    PTSUNNY   92  68  45 CALM      30.03F HX  96
$$

SKY/WX REPORTED AS FAIR MEANS FEW OR NO CLOUDS BELOW
12 THOUSAND FEET.




USA.gov is the U.S. government's official web portal to all federal, state and local government web resources and services.